FW1203 Weather Reports


Display with metric or nautical units.
time (UTC)temp
F
wind
direction
speed
MPH
gust
MPH
rain 1hr
in
rain 24hr
in
rain mn
in
humidity
%
barometer
mb
20260504233833 67 189 0.0 2.0 0.00 0.00 0.00 79 995.8
20260504233333 68 189 0.0 2.0 0.00 0.00 0.00 77 995.8
20260504232833 68 0 0.0 0.0 0.00 0.00 0.00 76 996.2
20260504232333 70 225 0.0 2.0 0.00 0.00 0.00 73 996.4
20260504231833 71 225 0.0 3.0 0.00 0.00 0.00 69 996.2
20260504231333 73 264 0.0 11.0 0.00 0.00 0.00 65 996.4
20260504230833 76 281 3.0 11.0 0.00 0.00 0.00 61 997.0
20260504230333 77 274 2.0 6.0 0.00 0.00 0.00 46 996.5
20260504225833 78 251 2.0 6.0 0.00 0.00 0.00 44 996.0
20260504225333 78 248 1.0 5.0 0.00 0.00 0.00 43 995.6
20260504224833 79 240 0.0 2.0 0.00 0.00 0.00 42 995.5
20260504224333 79 259 0.0 2.0 0.00 0.00 0.00 42 995.4
20260504223833 79 259 0.0 2.0 0.00 0.00 0.00 42 995.5
20260504223333 79 238 0.0 2.0 0.00 0.00 0.00 40 995.6
20260504222833 80 244 0.0 4.0 0.00 0.00 0.00 41 995.6
20260504222333 80 195 0.0 4.0 0.00 0.00 0.00 40 995.6
20260504221833 80 245 1.0 6.0 0.00 0.00 0.00 39 995.7
20260504221333 80 243 2.0 9.0 0.00 0.00 0.00 39 995.7
20260504220833 81 255 2.0 9.0 0.00 0.00 0.00 39 995.7
20260504220333 81 248 2.0 9.0 0.00 0.00 0.00 39 995.8
20260504215833 81 227 2.0 9.0 0.00 0.00 0.00 40 995.8
20260504215333 81 230 1.0 7.0 0.00 0.00 0.00 39 995.8
20260504214833 81 220 2.0 7.0 0.00 0.00 0.00 38 995.8
20260504214333 81 227 2.0 6.0 0.00 0.00 0.00 38 996.0
20260504213833 82 242 2.0 6.0 0.00 0.00 0.00 37 996.1
20260504213333 82 253 2.0 6.0 0.00 0.00 0.00 36 996.1
20260504212833 82 219 0.0 6.0 0.00 0.00 0.00 36 996.3
20260504212333 82 255 1.0 6.0 0.00 0.00 0.00 36 996.2
20260504211833 83 232 2.0 8.0 0.00 0.00 0.00 35 996.3
20260504211333 83 250 1.0 8.0 0.00 0.00 0.00 36 996.3
20260504210833 83 248 1.0 4.0 0.00 0.00 0.00 36 996.3
20260504210333 83 230 0.0 7.0 0.00 0.00 0.00 35 996.3
20260504205833 83 230 0.0 7.0 0.00 0.00 0.00 35 996.3
20260504205333 84 253 0.0 3.0 0.00 0.00 0.00 34 996.4
20260504204833 84 253 1.0 3.0 0.00 0.00 0.00 33 996.5
20260504204333 83 256 0.0 6.0 0.00 0.00 0.00 33 996.4
20260504203833 83 258 1.0 6.0 0.00 0.00 0.00 32 996.4
20260504203333 83 295 1.0 12.0 0.00 0.00 0.00 32 996.5
20260504202833 83 256 2.0 12.0 0.00 0.00 0.00 31 996.5
20260504202333 83 270 1.0 7.0 0.00 0.00 0.00 33 996.5
20260504201833 83 252 2.0 7.0 0.00 0.00 0.00 33 996.7
20260504201333 83 251 1.0 7.0 0.00 0.00 0.00 36 996.7
20260504200833 82 264 1.0 7.0 0.00 0.00 0.00 35 996.9
20260504200333 82 223 1.0 6.0 0.00 0.00 0.00 35 997.0
20260504195833 82 251 1.0 6.0 0.00 0.00 0.00 37 997.1
20260504195333 82 244 1.0 4.0 0.00 0.00 0.00 35 997.2
20260504194833 82 231 1.0 6.0 0.00 0.00 0.00 34 997.3
20260504194333 82 270 2.0 8.0 0.00 0.00 0.00 35 997.4
20260504193833 83 226 2.0 8.0 0.00 0.00 0.00 34 997.5
20260504193333 83 240 2.0 9.0 0.00 0.00 0.00 33 997.6
20260504192833 82 236 2.0 9.0 0.00 0.00 0.00 33 997.8
20260504192333 82 244 3.0 7.0 0.00 0.00 0.00 33 997.8
20260504191833 82 249 1.0 6.0 0.00 0.00 0.00 34 997.8
20260504191333 82 254 1.0 6.0 0.00 0.00 0.00 35 997.9
20260504190833 82 251 1.0 9.0 0.00 0.00 0.00 36 997.8
20260504190333 81 234 3.0 9.0 0.00 0.00 0.00 35 997.9
20260504185833 81 231 2.0 8.0 0.00 0.00 0.00 38 997.9
20260504185333 81 234 3.0 7.0 0.00 0.00 0.00 35 997.8
20260504184833 81 254 1.0 4.0 0.00 0.00 0.00 36 997.8
20260504184333 81 243 1.0 7.0 0.00 0.00 0.00 37 997.9
20260504183833 81 235 2.0 7.0 0.00 0.00 0.00 37 998.0
20260504183333 81 234 2.0 7.0 0.00 0.00 0.00 36 998.0
20260504182833 80 236 2.0 9.0 0.00 0.00 0.00 37 998.1
20260504182333 80 226 1.0 9.0 0.00 0.00 0.00 36 998.1
20260504181833 80 227 1.0 6.0 0.00 0.00 0.00 38 998.1
20260504181333 79 254 2.0 8.0 0.00 0.00 0.00 36 998.1
20260504180833 79 281 2.0 12.0 0.00 0.00 0.00 37 998.3
20260504180333 80 231 3.0 12.0 0.00 0.00 0.00 36 998.4
20260504175833 80 262 2.0 6.0 0.00 0.00 0.00 36 998.5
20260504175333 80 265 2.0 6.0 0.00 0.00 0.00 36 998.6
20260504174833 80 230 2.0 6.0 0.00 0.00 0.00 36 998.4
20260504174333 79 251 1.0 6.0 0.00 0.00 0.00 34 998.5
20260504173833 79 251 2.0 6.0 0.00 0.00 0.00 37 998.6
20260504173333 79 231 2.0 6.0 0.00 0.00 0.00 36 998.6
20260504172833 79 185 0.0 4.0 0.00 0.00 0.00 38 998.8
20260504172333 79 279 2.0 6.0 0.00 0.00 0.00 37 998.9
20260504171833 79 252 2.0 6.0 0.00 0.00 0.00 36 998.9
20260504171333 78 236 1.0 9.0 0.00 0.00 0.00 40 998.9
20260504170833 78 265 2.0 9.0 0.00 0.00 0.00 38 998.9
20260504170333 78 239 2.0 7.0 0.00 0.00 0.00 40 999.1
20260504160333 75 240 1.0 6.0 0.00 0.00 0.00 42 1000.1
20260504150833 72 267 0.0 4.0 0.00 0.00 0.00 48 1000.7
20260504150333 71 268 1.0 4.0 0.00 0.00 0.00 48 1000.7
20260504141333 68 225 0.0 3.0 0.00 0.00 0.00 56 1001.4
20260504140833 67 267 0.0 3.0 0.00 0.00 0.00 55 1001.4
20260504140333 67 234 1.0 4.0 0.00 0.00 0.00 55 1001.4
20260504130333 58 242 1.0 3.0 0.00 0.00 0.00 71 1002.2
20260504110333 48 0 0.0 0.0 0.00 0.00 0.00 88 1002.3
20260504100333 48 0 0.0 0.0 0.00 0.00 0.00 88 1002.6
20260504081833 50 0 0.0 0.0 0.00 0.00 0.00 82 1002.2
20260504081333 50 0 0.0 0.0 0.00 0.00 0.00 81 1002.3
20260504080833 51 0 0.0 0.0 0.00 0.00 0.00 81 1002.3
20260504080333 51 0 0.0 0.0 0.00 0.00 0.00 81 1002.3
20260504070333 55 0 0.0 0.0 0.00 0.00 0.00 73 1003.2
20260504050333 59 246 0.0 2.0 0.00 0.00 0.00 68 1004.0
20260504045833 59 0 0.0 0.0 0.00 0.00 0.00 68 1004.1
20260504045333 59 0 0.0 0.0 0.00 0.00 0.00 67 1004.0
20260504044833 59 0 0.0 0.0 0.00 0.00 0.00 67 1004.0
20260504044333 60 0 0.0 0.0 0.00 0.00 0.00 66 1004.0
20260504043833 60 0 0.0 0.0 0.00 0.00 0.00 66 1004.0
20260504043333 60 0 0.0 0.0 0.00 0.00 0.00 66 1003.9
20260504042833 60 0 0.0 0.0 0.00 0.00 0.00 66 1004.0
20260504042333 60 0 0.0 0.0 0.00 0.00 0.00 65 1004.1
20260504041833 60 0 0.0 0.0 0.00 0.00 0.00 65 1004.1
20260504041333 60 0 0.0 0.0 0.00 0.00 0.00 64 1004.1
20260504040833 61 246 0.0 2.0 0.00 0.00 0.00 64 1004.1
20260504040333 61 246 0.0 2.0 0.00 0.00 0.00 64 1004.2
20260504035833 61 250 0.0 2.0 0.00 0.00 0.00 63 1004.2
20260504035333 61 250 0.0 2.0 0.00 0.00 0.00 64 1004.2
20260504034833 61 250 0.0 2.0 0.00 0.00 0.00 63 1004.3
20260504034333 61 250 0.0 2.0 0.00 0.00 0.00 63 1004.3
20260504033833 61 252 0.0 2.0 0.00 0.00 0.00 63 1004.4
20260504033333 61 252 0.0 2.0 0.00 0.00 0.00 63 1004.5
20260504032833 61 0 0.0 0.0 0.00 0.00 0.00 63 1004.5
20260504032333 61 0 0.0 0.0 0.00 0.00 0.00 63 1004.6
20260504031833 62 252 0.0 1.0 0.00 0.00 0.00 63 1004.6
20260504031333 62 252 0.0 2.0 0.00 0.00 0.00 63 1004.7
20260504030833 62 252 0.0 2.0 0.00 0.00 0.00 62 1004.7
20260504030333 62 0 0.0 0.0 0.00 0.00 0.00 62 1004.7
20260504025833 62 0 0.0 0.0 0.00 0.00 0.00 62 1004.7
20260504025333 62 0 0.0 0.0 0.00 0.00 0.00 61 1004.7
20260504024833 63 0 0.0 0.0 0.00 0.00 0.00 61 1004.7
20260504024333 63 253 0.0 1.0 0.00 0.00 0.00 61 1004.6
20260504023833 63 253 0.0 1.0 0.00 0.00 0.00 60 1004.6
20260504023333 63 253 0.0 1.0 0.00 0.00 0.00 60 1004.5
20260504022833 63 255 0.0 1.0 0.00 0.00 0.00 59 1004.5
20260504022333 63 257 0.0 1.0 0.00 0.00 0.00 59 1004.6
20260504021833 63 258 0.0 1.0 0.00 0.00 0.00 59 1004.6
20260504021333 64 259 0.0 1.0 0.00 0.00 0.00 59 1004.6
20260504020833 64 259 0.0 2.0 0.00 0.00 0.00 58 1004.5
20260504020333 64 259 0.0 2.0 0.00 0.00 0.00 58 1004.5
20260504015833 64 261 0.0 2.0 0.00 0.00 0.00 58 1004.5
20260504015333 64 261 0.0 2.0 0.00 0.00 0.00 58 1004.4
20260504014833 64 264 0.0 2.0 0.00 0.00 0.00 58 1004.3
20260504014333 64 240 0.0 1.0 0.00 0.00 0.00 57 1004.3
20260504013833 64 196 0.0 2.0 0.00 0.00 0.00 57 1004.2
20260504013333 64 219 0.0 2.0 0.00 0.00 0.00 57 1004.2
20260504012833 64 239 0.0 2.0 0.00 0.00 0.00 57 1004.1
20260504012333 64 239 0.0 2.0 0.00 0.00 0.00 56 1004.0
20260504011833 65 233 0.0 1.0 0.00 0.00 0.00 56 1004.0
20260504011333 65 233 0.0 1.0 0.00 0.00 0.00 55 1004.0
20260504010833 66 233 0.0 1.0 0.00 0.00 0.00 54 1003.9
20260504010333 66 231 0.0 1.0 0.00 0.00 0.00 54 1004.0
20260504005833 66 231 0.0 1.0 0.00 0.00 0.00 53 1003.9
20260504005333 67 231 0.0 1.0 0.00 0.00 0.00 53 1004.0
20260504004833 67 230 0.0 1.0 0.00 0.00 0.00 52 1004.0
20260504004333 67 254 0.0 3.0 0.00 0.00 0.00 51 1004.0
20260504003833 67 254 1.0 6.0 0.00 0.00 0.00 51 1004.0
20260504003333 68 227 1.0 6.0 0.00 0.00 0.00 50 1004.0
20260504002833 68 218 0.0 2.0 0.00 0.00 0.00 50 1004.0
20260504002333 68 223 1.0 3.0 0.00 0.00 0.00 50 1004.0
20260504001833 68 262 1.0 4.0 0.00 0.00 0.00 50 1004.0
20260504001333 68 231 1.0 6.0 0.00 0.00 0.00 50 1004.0
20260504000833 68 215 1.0 6.0 0.00 0.00 0.00 50 1003.9
20260504000333 68 277 1.0 4.0 0.00 0.00 0.00 49 1004.0
20260503235833 68 249 0.0 4.0 0.00 0.00 0.00 50 1004.0
20260503235333 68 222 1.0 5.0 0.00 0.00 0.00 49 1004.0
20260503234833 69 215 1.0 5.0 0.00 0.00 0.00 49 1003.9
20260503234333 68 254 1.0 4.0 0.00 0.00 0.00 49 1004.0